sat.trackr.live / text

‹ back to catalog

KUIPER-00503

NORAD 68884 · 2026-095W

PAYLOAD ACTIVE UNKNOWN

§ Identity

Operator
Country
US
Launch date
2026-04-28
Launch site
AFETR
Launch vehicle
Mass (kg)
RCS (m²)

External: N2YO · Heavens-Above · Gunter

§ Orbital elements

Epoch: 2026-09-20T03:34:17.628096Z

Period
97.30 min
Inclination
51.8989°
Eccentricity
0.0001018
Mean motion
14.79930150 rev/d
Perigee alt
628.8 km
Apogee alt
630.3 km
Semi-major
7,007.7 km
B*
1.3218e-4
RAAN
188.2148°
Arg perigee
77.6173°
Mean anomaly
282.4903°
Rev number
2,171

§ Raw data

KUIPER-005031 68884U 26095W   26263.14881514  .00000786  00000+0  13218-3 0  99952 68884  51.8989 188.2148 0001018  77.6173 282.4903 14.79930150 21717

JSON: /api/v1/satellites/68884 · /tle

For live sub-satellite position, see the globe view (requires WebGL).

§ Visibility from observer

Set your observer location to see the next 7 days of passes ≥ 10°. The values pass through the URL so the page stays shareable.

No JS? Fill the form by hand. The geolocation button needs JavaScript.